| time (UTC) | temp C | wind direction | speed KPH | gust KPH | rain 1hr cm | rain 24hr cm | rain mn cm | humidity % | barometer mb |
| 20260504183010 | 10 | 295 | 0.0 | 0.0 | 0.00 | 0.43 | 0.43 | 82 | 1009.3 |
| 20260504181507 | 10 | 295 | 0.0 | 0.0 | 0.00 | 0.43 | 0.43 | 83 | 1009.4 |
| 20260504180006 | 10 | 295 | 0.0 | 0.0 | 0.00 | 0.43 | 0.43 | 86 | 1009.5 |
| 20260504174506 | 8 | 295 | 0.0 | 1.6 | 0.00 | 0.43 | 0.43 | 86 | 1009.7 |
| 20260504173009 | 8 | 295 | 0.0 | 3.2 | 0.00 | 0.43 | 0.43 | 86 | 1009.9 |
| 20260504171508 | 8 | 295 | 0.0 | 0.0 | 0.00 | 0.43 | 0.43 | 89 | 1009.9 |
| 20260504081526 | 0 | 247 | 0.0 | 0.0 | 0.00 | 0.15 | 0.00 | 88 | 1010.1 |
| 20260504050020 | -1 | 247 | 0.0 | 0.0 | 0.00 | 0.25 | 0.00 | 85 | 1010.3 |
| 20260504044521 | 0 | 247 | 0.0 | 0.0 | 0.00 | 0.25 | 0.00 | 82 | 1010.4 |
| 20260504043033 | 0 | 247 | 0.0 | 0.0 | 0.00 | 0.28 | 0.00 | 81 | 1010.5 |
| 20260504041519 | 0 | 247 | 0.0 | 1.6 | 0.00 | 0.30 | 0.00 | 82 | 1010.4 |
| 20260504040022 | 0 | 247 | 0.0 | 0.0 | 0.00 | 0.33 | 0.00 | 82 | 1010.3 |
| 20260504034520 | 0 | 247 | 0.0 | 1.6 | 0.00 | 0.36 | 0.33 | 83 | 1010.3 |
| 20260504033015 | 0 | 247 | 0.0 | 3.2 | 0.00 | 0.38 | 0.33 | 83 | 1010.3 |
| 20260504031521 | 0 | 247 | 0.0 | 4.8 | 0.00 | 0.38 | 0.33 | 89 | 1010.3 |
| 20260504030009 | 0 | 247 | 0.0 | 0.0 | 0.00 | 0.41 | 0.33 | 90 | 1010.3 |
| 20260504024508 | -1 | 247 | 0.0 | 0.0 | 0.00 | 0.43 | 0.33 | 89 | 1010.2 |
| 20260504023010 | 0 | 247 | 0.0 | 1.6 | 0.00 | 0.48 | 0.33 | 88 | 1010.3 |
| 20260504021516 | 0 | 247 | 0.0 | 0.0 | 0.00 | 0.51 | 0.33 | 87 | 1010.5 |
| 20260504020023 | 0 | 247 | 0.0 | 0.0 | 0.00 | 0.53 | 0.33 | 85 | 1010.4 |
| 20260504014503 | 0 | 247 | 0.0 | 1.6 | 0.00 | 0.56 | 0.33 | 83 | 1010.4 |
| 20260504013027 | 1 | 247 | 0.0 | 0.0 | 0.00 | 0.58 | 0.33 | 83 | 1010.4 |
| 20260504011510 | 1 | 247 | 0.0 | 0.0 | 0.00 | 0.58 | 0.33 | 81 | 1010.5 |
| 20260504010020 | 1 | 247 | 0.0 | 0.0 | 0.00 | 0.58 | 0.33 | 78 | 1010.4 |
| 20260504004527 | 2 | 247 | 0.0 | 0.0 | 0.00 | 0.58 | 0.33 | 77 | 1010.3 |
| 20260504003006 | 2 | 247 | 0.0 | 0.0 | 0.00 | 0.58 | 0.33 | 75 | 1010.1 |
| 20260504001510 | 3 | 247 | 0.0 | 0.0 | 0.00 | 0.58 | 0.33 | 72 | 1010.2 |
| 20260504000015 | 4 | 247 | 0.0 | 0.0 | 0.00 | 0.58 | 0.33 | 70 | 1010.1 |
| 20260503234518 | 5 | 247 | 0.0 | 0.0 | 0.00 | 0.58 | 0.33 | 61 | 1010.0 |
| 20260503233022 | 5 | 247 | 0.0 | 4.8 | 0.00 | 0.58 | 0.33 | 57 | 1010.0 |
| 20260503231504 | 6 | 247 | 0.0 | 3.2 | 0.00 | 0.58 | 0.33 | 54 | 1009.9 |
| 20260503230008 | 6 | 247 | 0.0 | 4.8 | 0.00 | 0.58 | 0.33 | 63 | 1009.9 |
| 20260503224513 | 6 | 247 | 0.0 | 4.8 | 0.00 | 0.58 | 0.33 | 52 | 1009.8 |
| 20260503223019 | 6 | 167 | 0.0 | 6.4 | 0.00 | 0.58 | 0.33 | 53 | 1009.7 |
| 20260503221526 | 6 | 167 | 0.0 | 6.4 | 0.00 | 0.58 | 0.33 | 48 | 1009.7 |
| 20260503220006 | 6 | 268 | 0.0 | 1.6 | 0.00 | 0.58 | 0.33 | 51 | 1009.7 |
| 20260503214512 | 6 | 314 | 0.0 | 3.2 | 0.00 | 0.58 | 0.33 | 55 | 1009.7 |
| 20260503213015 | 6 | 314 | 0.0 | 12.9 | 0.00 | 0.58 | 0.33 | 52 | 1009.6 |
| 20260503211522 | 6 | 171 | 0.0 | 6.4 | 0.00 | 0.58 | 0.33 | 50 | 1009.7 |
| 20260503210024 | 6 | 347 | 0.0 | 4.8 | 0.00 | 0.58 | 0.33 | 47 | 1009.5 |
| 20260503204508 | 6 | 167 | 1.6 | 8.0 | 0.00 | 0.58 | 0.33 | 50 | 1009.5 |
| 20260503203035 | 6 | 253 | 3.2 | 12.9 | 0.00 | 0.61 | 0.33 | 49 | 1009.6 |
| 20260503201519 | 6 | 53 | 1.6 | 9.7 | 0.00 | 0.61 | 0.33 | 48 | 1009.5 |
| 20260503200026 | 6 | 110 | 0.0 | 16.1 | 0.00 | 0.61 | 0.33 | 53 | 1009.4 |
| 20260503194537 | 7 | 48 | 1.6 | 11.3 | 0.00 | 0.61 | 0.33 | 47 | 1009.3 |
| 20260503193014 | 6 | 35 | 0.0 | 14.5 | 0.00 | 0.66 | 0.33 | 58 | 1009.4 |
| 20260503191515 | 6 | 312 | 1.6 | 8.0 | 0.00 | 0.66 | 0.33 | 52 | 1009.5 |
| 20260503190033 | 6 | 134 | 1.6 | 16.1 | 0.00 | 0.66 | 0.33 | 55 | 1009.4 |
| 20260503184526 | 6 | 66 | 0.0 | 16.1 | 0.00 | 0.66 | 0.33 | 50 | 1009.4 |